Date String (YYYY-MM-DD hh:mm:ss) UTC,Instrument flags,Ambient pressure (hPa),Sample flow (lpm),Bypass flow (lpm),Sample temperature (°C),Ambient temperature (°C),ASC tube jacket temperature (°C),LED temperature (°C),Box temperature (°C),Sample RH (%),Span deviation,Mass concentration (μg/m³),Mass concentration (μg/m³),Mass concentration (μg/m³)
DateTimeUTC,F1_M11,P_M11,Q1_M11,Q2_M11,T1_M11,T2_M11,T3_M11,T4_M11,T5_M11,U1_M11,ZSPAN_M11,X0_M11,X2_M11,X1_M11
2023-01-23 23:00:00,,0824.1,5.00,0.00,22.5,22.0,00.0,31.1,24.4,14.9,0000.2,0018.37,0015.83,0015.40
2023-01-23 23:01:00,,0824.1,5.00,0.00,22.5,21.8,00.0,31.1,24.4,14.9,0000.6,0018.00,0015.49,0015.05
2023-01-23 23:02:00,,0824.1,5.00,0.00,22.5,21.6,00.0,31.1,24.3,14.8,0000.8,0017.64,0015.16,0014.70
2023-01-23 23:03:00,,0824.1,4.99,0.00,22.5,21.4,00.0,31.1,24.3,14.8,0000.6,0017.08,0014.76,0014.36
2023-01-23 23:04:00,,0824.1,5.01,0.00,22.5,21.3,00.0,31.1,24.3,14.8,0000.2,0016.67,0014.40,0014.03
2023-01-23 23:05:00,,0824.1,5.01,0.00,22.5,21.1,00.0,31.2,24.2,14.8,0000.0,0016.61,0014.14,0013.78
2023-01-23 23:06:00,,0824.2,5.00,0.00,22.5,21.0,00.0,31.2,24.2,14.8,-000.0,0016.83,0014.05,0013.67
2023-01-23 23:07:00,,0824.2,5.01,0.00,22.4,20.9,00.0,31.2,24.1,14.8,0000.2,0017.05,0014.09,0013.69
2023-01-23 23:08:00,,0824.2,5.00,0.00,22.4,20.9,00.0,31.2,24.1,14.8,0000.0,0017.15,0014.13,0013.74
2023-01-23 23:09:00,,0824.2,4.99,0.00,22.4,20.8,00.0,31.2,24.1,14.7,-000.3,0017.45,0014.18,0013.80
2023-01-23 23:10:00,,0824.2,5.00,0.00,22.4,20.7,00.0,31.2,24.0,14.8,-000.7,0017.50,0014.24,0013.86
2023-01-23 23:11:00,,0824.2,5.01,0.00,22.3,20.7,00.0,31.2,24.0,14.8,-001.1,0017.57,0014.30,0013.91
2023-01-23 23:12:00,,0824.2,5.00,0.00,22.3,20.7,00.0,31.1,24.0,14.8,-001.2,0017.58,0014.27,0013.91
2023-01-23 23:13:00,,0824.2,4.99,0.00,22.3,20.7,00.0,31.1,24.0,14.9,-001.1,0017.54,0014.27,0013.91
2023-01-23 23:14:00,,0824.2,4.99,0.00,22.3,20.6,00.0,31.1,24.0,14.9,-000.8,0017.53,0014.28,0013.91
2023-01-23 23:15:00,,0824.2,5.01,0.00,22.3,20.6,00.0,31.1,23.9,14.9,-000.3,0017.56,0014.32,0013.94
2023-01-23 23:16:00,,0824.3,5.00,0.00,22.3,20.6,00.0,31.1,23.9,15.0,-000.4,0017.39,0014.33,0013.94
2023-01-23 23:17:00,,0824.3,5.00,0.00,22.2,20.6,00.0,31.1,23.9,15.0,-000.1,0017.12,0014.34,0013.95
2023-01-23 23:18:00,,0824.2,5.00,0.00,22.2,20.6,00.0,31.1,23.9,15.1,-000.2,0017.09,0014.36,0013.97
2023-01-23 23:19:00,,0824.2,5.02,0.00,22.3,21.3,00.0,31.0,24.1,15.0,0000.1,0017.15,0014.41,0014.01
2023-01-23 23:20:00,,0824.2,5.00,0.00,22.4,22.2,00.0,31.0,24.3,15.0,0000.4,0016.81,0014.43,0014.02
2023-01-23 23:21:00,,0824.2,4.99,0.00,22.4,22.3,00.0,31.1,24.4,14.9,0000.5,0016.76,0014.42,0014.02
2023-01-23 23:22:00,,0824.2,5.00,0.00,22.5,21.9,00.0,31.1,24.3,14.9,0000.4,0016.77,0014.43,0014.05
2023-01-23 23:23:00,,0824.2,5.00,0.00,22.4,21.6,00.0,31.1,24.2,14.9,0000.5,0016.74,0014.48,0014.10
2023-01-23 23:24:00,,0824.2,5.00,0.00,22.4,21.3,00.0,31.1,24.2,14.9,0000.6,0016.74,0014.52,0014.16
2023-01-23 23:25:00,,0824.4,5.00,0.00,22.4,21.2,00.0,31.2,24.1,14.9,0000.5,0016.79,0014.57,0014.22
2023-01-23 23:26:00,,0824.2,4.99,0.00,22.4,21.0,00.0,31.2,24.1,15.0,0000.5,0016.75,0014.58,0014.27
2023-01-23 23:27:00,,0824.2,5.00,0.00,22.4,21.0,00.0,31.2,24.1,15.0,0000.6,0016.71,0014.62,0014.31
2023-01-23 23:28:00,,0824.2,4.99,0.00,22.4,20.8,00.0,31.1,24.0,15.0,0000.4,0016.75,0014.70,0014.39
2023-01-23 23:29:00,,0824.3,4.99,0.00,22.3,20.8,00.0,31.1,24.0,15.0,0000.2,0016.76,0014.76,0014.44
2023-01-23 23:30:00,,0824.4,5.00,0.00,22.3,20.7,00.0,31.1,24.0,15.0,0000.1,0016.89,0014.83,0014.48
2023-01-23 23:31:00,,0824.3,5.00,0.00,22.3,20.7,00.0,31.1,23.9,15.0,0000.2,0016.93,0014.85,0014.51
2023-01-23 23:32:00,,0824.3,4.98,0.00,22.3,20.6,00.0,31.1,23.9,15.0,0000.5,0016.96,0014.90,0014.55
2023-01-23 23:33:00,,0824.3,5.01,0.00,22.3,20.6,00.0,31.1,23.9,15.0,0000.7,0017.01,0014.94,0014.58
2023-01-23 23:34:00,,0824.3,5.00,0.00,22.2,20.6,00.0,31.1,23.9,15.0,0000.5,0017.12,0014.96,0014.59
2023-01-23 23:35:00,,0824.4,5.02,0.00,22.2,20.6,00.0,31.1,23.9,15.1,-000.4,0017.11,0014.95,0014.58
2023-01-23 23:36:00,,0824.3,5.00,0.00,22.2,20.6,00.0,31.1,23.9,15.1,-000.9,0017.12,0014.95,0014.57
2023-01-23 23:37:00,,0824.3,5.00,0.00,22.2,20.6,00.0,31.0,23.9,15.1,-001.1,0017.23,0014.97,0014.58
2023-01-23 23:38:00,,0824.4,5.02,0.00,22.2,20.6,00.0,31.0,23.9,15.1,-001.1,0017.32,0014.98,0014.57
2023-01-23 23:39:00,,0824.4,5.00,0.00,22.2,21.2,00.0,31.0,24.0,15.1,-001.1,0017.47,0014.93,0014.53
2023-01-23 23:40:00,,0824.4,5.00,0.00,22.3,22.1,00.0,31.0,24.3,15.0,-000.8,0017.51,0014.88,0014.48
2023-01-23 23:41:00,,0824.3,5.00,0.00,22.4,22.5,00.0,31.1,24.4,14.9,-000.8,0017.34,0014.83,0014.46
2023-01-23 23:42:00,,0824.3,5.00,0.00,22.5,22.2,00.0,31.1,24.4,14.9,-001.0,0017.26,0014.79,0014.45
2023-01-23 23:43:00,,0824.3,5.01,0.00,22.5,21.9,00.0,31.1,24.3,14.8,-001.4,0017.22,0014.76,0014.42
2023-01-23 23:44:00,,0824.3,5.00,0.00,22.5,21.6,00.0,31.1,24.3,14.8,-001.6,0017.17,0014.71,0014.39
2023-01-23 23:45:00,,0824.3,5.00,0.00,22.5,21.4,00.0,31.2,24.3,14.8,-001.7,0017.25,0014.69,0014.38
2023-01-23 23:46:00,,0824.3,5.00,0.00,22.5,21.3,00.0,31.2,24.2,14.8,-001.8,0017.28,0014.70,0014.37
2023-01-23 23:47:00,,0824.3,5.00,0.00,22.5,21.2,00.0,31.2,24.2,14.8,-001.5,0017.30,0014.72,0014.39
2023-01-23 23:48:00,,0824.3,4.99,0.00,22.5,21.1,00.0,31.2,24.2,14.8,-001.7,0017.43,0014.72,0014.38
2023-01-23 23:49:00,,0824.3,5.02,0.00,22.5,21.0,00.0,31.2,24.2,14.8,-001.8,0017.72,0014.70,0014.36
2023-01-23 23:50:00,,0824.3,5.01,0.00,22.4,20.9,00.0,31.2,24.1,14.8,-002.1,0017.67,0014.71,0014.37
2023-01-23 23:51:00,,0824.3,5.00,0.00,22.4,20.9,00.0,31.2,24.1,14.9,-002.3,0017.33,0014.69,0014.36
2023-01-23 23:52:00,,0824.3,5.00,0.00,22.4,20.8,00.0,31.2,24.1,14.9,-002.1,0017.23,0014.67,0014.36
2023-01-23 23:53:00,,0824.3,5.00,0.00,22.4,20.8,00.0,31.2,24.1,14.8,-001.8,0017.27,0014.67,0014.35
2023-01-23 23:54:00,,0824.3,4.99,0.00,22.4,20.8,00.0,31.2,24.0,14.9,-001.7,0017.29,0014.69,0014.37
2023-01-23 23:55:00,,0824.3,5.01,0.00,22.4,20.8,00.0,31.2,24.0,14.8,-001.1,0017.36,0014.74,0014.39
2023-01-23 23:56:00,,0824.3,5.00,0.00,22.3,20.7,00.0,31.2,24.0,14.8,-000.7,0017.21,0014.77,0014.41
2023-01-23 23:57:00,,0824.3,5.00,0.00,22.3,20.7,00.0,31.1,24.0,14.8,-000.2,0017.16,0014.81,0014.45
2023-01-23 23:58:00,,0824.3,4.99,0.00,22.3,20.7,00.0,31.1,23.9,14.8,-000.2,0017.12,0014.82,0014.48
2023-01-23 23:59:00,,0824.3,5.01,0.00,22.3,20.7,00.0,31.1,23.9,14.8,0000.3,0016.98,0014.83,0014.49
